Location: *
(43.6428°N, 11.5461°E)
Time: 06:32:25
(UTC+00:00)

IRS-1A Rocket - Pass Details

Date: 21 October 2019
Orbit: 852 x 931 km, 99.2° (Epoch: 12 November)

Event Time Altitude Azimuth Distance (km) Brightness Sun altitude
Exits shadow 17:46:35 11° 139° (SE) 2,420 6.2 -16.1°
Maximum altitude 17:51:37 46° 68° (ENE) 1,137 4.5 -17.0°
Drops below altitude 10° 17:56:52 10° 357° (N) 2,498 6.7 -18.0°
Sets 17:59:20 0° 351° (N) 3,445 7.5 -18.4°
